Location: Newark
(58.2667°N, 22.3833°E)
Time: 22:42:16
(UTC+00:00)

Envisat - Visible Passes

Search period start: 16 October 2019 00:00
Search period end: 26 October 2019 00:00
Orbit: 764 x 766 km, 98.1° (Epoch: 16 October)

Date Brightness Start Highest point End Pass type
(mag) Time Alt. Az. Time Alt. Az. Time Alt. Az.
16 Oct 6.6 03:42:52 10° ENE 03:44:10 11° ENE 03:45:29 10° E visible
16 Oct 3.8 16:43:04 10° S 16:48:04 56° W 16:53:06 10° NNW visible
16 Oct 6.2 18:26:20 10° WSW 18:28:16 12° W 18:30:13 10° WNW visible
17 Oct 3.0 16:06:07 10° SSE 16:11:13 85° ENE 16:16:20 10° NNW visible
17 Oct 5.6 17:47:02 10° SW 17:50:55 21° W 17:54:48 10° NW visible
18 Oct 6.1 04:06:53 10° NE 04:10:09 17° E 04:13:23 10° ESE visible
18 Oct 4.6 17:09:02 10° SSW 17:13:44 37° W 17:18:28 10° NNW visible
19 Oct 3.5 16:31:42 10° S 16:36:45 66° WSW 16:41:51 10° NNW visible
19 Oct 6.0 18:14:04 10° WSW 18:16:48 14° W 18:19:33 10° NW visible
20 Oct 5.7 04:31:50 10° NE 04:36:00 25° E 04:40:09 10° SE visible
20 Oct 3.0 15:54:53 10° SSE 15:59:57 73° ENE 16:05:03 10° NNW visible
20 Oct 5.3 17:35:19 10° SW 17:39:30 25° W 17:43:42 10° NW visible
21 Oct 6.2 03:56:02 10° NE 03:58:42 14° E 04:01:21 10° ESE visible
21 Oct 4.3 16:57:32 10° S 17:02:24 44° W 17:07:16 10° NNW visible
22 Oct 3.2 16:20:22 10° SSE 16:25:28 78° WSW 16:30:36 10° NNW visible
22 Oct 5.9 18:02:04 10° SW 18:05:22 17° W 18:08:40 10° NW visible
23 Oct 5.9 04:20:46 10° NE 04:24:37 21° E 04:28:26 10° SE visible
23 Oct 3.0 15:43:41 10° SE 15:48:42 62° ENE 15:53:45 10° NNW visible
23 Oct 5.0 17:23:41 10° SSW 17:28:07 30° W 17:32:35 10° NNW visible
24 Oct 6.4 03:45:25 10° ENE 03:47:13 12° E 03:49:02 10° E visible
24 Oct 3.9 16:46:06 10° S 16:51:03 52° W 16:56:03 10° NNW visible
24 Oct 6.2 18:29:50 10° W 18:31:19 11° WNW 18:32:49 10° WNW visible
25 Oct 5.3 04:45:53 10° NNE 04:50:25 31° E 04:54:54 10° SSE visible
25 Oct 3.0 16:09:05 10° SSE 16:14:11 90° NE 16:19:19 10° NNW visible
25 Oct 5.6 17:50:12 10° SW 17:53:56 20° W 17:57:41 10° NW visible
